Location: *
(57.8420°S, 159.8600°W)
Time: 03:11:26
(UTC+00:00)

SL-16 R/B - Pass Details

Date: 18 May 2021
Orbit: 843 x 845 km, 71.0° (Epoch: 20 June)

Event Time Altitude Azimuth Distance (km) Brightness Sun altitude
Rises 07:34:58 0° 230° (SW) 3,443 6.2 -39.6°
Reaches altitude 10° 07:37:51 10° 217° (SW) 2,505 5.2 -39.9°
Enters shadow 07:39:55 19° 201° (SSW) 1,960 4.5 -40.2°
